Погода в Аргунске

Россия / Забайкальский край     51°34′40″N   120°01′06″E
темп.,
°C
ветер,
м/с
пор.,
м/с
влажн.,
%
обл.,
%
осадки,
мм/ч
давл.,
гПа
погр.,
м
29 ноября, пн
пн2900:00−18зсз00987 0.0 10319
03:00−19ююз119947 0.0 10329
06:00−20ю1110061 0.0 103211
09:00−20ююз12100100 0.0 103141
12:00−14ююз2383100 0.0 1029207
15:00−12ююз2381100 0.0 1026358
18:00−17ююз229934 0.0 102716
21:00−19ююз2110085 0.0 102721
30 ноября, вт
вт3000:00−19ююз22100100 0.0 102742
03:00−21ююз1110082 0.0 102617
06:00−22ююз1110092 0.0 102610
09:00−22ююз1110092 0.0 102711
12:00−16ю118431 0.0 1025166
15:00−14ю00785 0.0 1023214
18:00−19ююз11985 0.0 10269
21:00−21зюз001005 0.0 10289
1 декабря, ср
ср100:00−22юз0110028 0.0 10299
03:00−23ююз1110048 0.0 10299
06:00−24ююз1110073 0.0 102818
09:00−21ю2298100 0.0 102571
12:00−16ююз2385100 0.0 1021219
15:00−14ююз248599 0.1 1016336
18:00−18ююз22100100 0.0 101528
21:00−17ю2398100 0.1 101190
2 декабря, чт
чт200:00−15ююз2396100 0.8 1005102
03:00−15ююз1197100 1.8 100325
06:00−15ссз2297100 0.3 100469
09:00−15с1198100 0.4 100733
12:00−11с377598 0.0 1008772
15:00−9с386669 0.0 10101073
18:00−17зсз22925 0.0 101513
21:00−20зюз11985 0.0 10189
3 декабря, пт
пт300:00−22юз11997 0.0 10199
03:00−24ю119960 0.0 102010
06:00−25ююз111006 0.0 10219
09:00−25ююв119987 0.0 102211
12:00−17ю11730 0.0 1020144
15:00−13ю11672 0.0 1019141
18:00−22ю11985 0.0 10239
21:00−23ю11995 0.0 10269